• In Norway
  • List of Countries
  • For 7 days
  • Water Temperature
  • Satellite Maps
  • Weather Map
  • Weather Widgets
  • user-avatar
    Login

    Hourly Weather Wlodzislaw

    Today, 21 October, Sunday

    Time Temperature Precipitation Wind Pressure Humidity
    00:00 +9°C° 0 mm 2 mps 767 mmHg 89%
    01:00 +8°C° 0 mm 2 mps 767 mmHg 90%
    02:00 +8°C° 0 mm 2 mps 767 mmHg 90%
    03:00 +8°C° 0 mm 2 mps 767 mmHg 91%
    04:00 +8°C° 0 mm 2 mps 767 mmHg 91%
    05:00 +8°C° 0 mm 2 mps 767 mmHg 91%
    06:00 +7°C° 0 mm 2 mps 768 mmHg 92%
    07:00 +7°C° 0 mm 2 mps 768 mmHg 92%
    08:00 +9°C° 0 mm 2 mps 768 mmHg 87%
    09:00 +10°C° 0 mm 2 mps 768 mmHg 82%
    10:00 +12°C° 0 mm 2 mps 768 mmHg 76%
    11:00 +13°C° 0 mm 2 mps 768 mmHg 72%
    12:00 +13°C° 0 mm 3 mps 768 mmHg 67%
    13:00 +13°C° 0 mm 3 mps 768 mmHg 62%
    14:00 +13°C° 0 mm 3 mps 768 mmHg 64%
    15:00 +13°C° 0 mm 3 mps 767 mmHg 65%
    16:00 +12°C° 0 mm 3 mps 767 mmHg 67%
    17:00 +11°C° 0 mm 3 mps 767 mmHg 70%
    18:00 +10°C° 0 mm 3 mps 767 mmHg 74%
    19:00 +10°C° 0 mm 3 mps 767 mmHg 77%
    20:00 +9°C° 0 mm 3 mps 767 mmHg 78%
    21:00 +8°C° 0 mm 4 mps 767 mmHg 80%
    22:00 +8°C° 0 mm 4 mps 767 mmHg 81%
    23:00 +8°C° 0 mm 4 mps 767 mmHg 82%

    Tomorrow, 22 October, Monday

    Time Temperature Precipitation Wind Pressure Humidity
    00:00 +8°C° 0 mm 4 mps 766 mmHg 82%
    01:00 +7°C° 0 mm 4 mps 766 mmHg 83%
    02:00 +7°C° 0 mm 4 mps 766 mmHg 84%
    03:00 +7°C° 0 mm 5 mps 766 mmHg 85%
    04:00 +7°C° 0 mm 5 mps 765 mmHg 86%
    05:00 +8°C° 0.2 mm 5 mps 765 mmHg 86%
    06:00 +8°C° 0.2 mm 5 mps 765 mmHg 86%
    07:00 +8°C° 0.2 mm 5 mps 765 mmHg 85%
    08:00 +9°C° 0.5 mm 5 mps 765 mmHg 86%
    09:00 +9°C° 0.5 mm 5 mps 766 mmHg 87%
    10:00 +9°C° 0.5 mm 5 mps 766 mmHg 88%
    11:00 +9°C° 0.6 mm 5 mps 766 mmHg 85%
    12:00 +10°C° 0.6 mm 5 mps 766 mmHg 81%
    13:00 +10°C° 0.6 mm 5 mps 766 mmHg 78%
    14:00 +10°C° 0 mm 6 mps 766 mmHg 74%
    15:00 +10°C° 0 mm 6 mps 767 mmHg 71%
    16:00 +10°C° 0 mm 6 mps 767 mmHg 67%
    17:00 +9°C° 0 mm 6 mps 767 mmHg 69%
    18:00 +8°C° 0 mm 5 mps 767 mmHg 71%
    19:00 +7°C° 0 mm 5 mps 768 mmHg 72%
    20:00 +7°C° 0 mm 5 mps 768 mmHg 73%
    21:00 +7°C° 0 mm 5 mps 768 mmHg 73%
    22:00 +7°C° 0 mm 5 mps 768 mmHg 74%
    23:00 +7°C° 0 mm 5 mps 767 mmHg 75%

    Day after tomorrow, 23 October, Tuesday

    Time Temperature Precipitation Wind Pressure Humidity
    00:00 +6°C° 0 mm 5 mps 767 mmHg 76%
    01:00 +6°C° 0 mm 5 mps 766 mmHg 77%
    02:00 +5°C° 0.1 mm 6 mps 766 mmHg 79%
    03:00 +5°C° 0.1 mm 6 mps 765 mmHg 81%
    04:00 +5°C° 0.1 mm 7 mps 764 mmHg 82%
    05:00 +5°C° 0.5 mm 8 mps 763 mmHg 82%
    06:00 +5°C° 0.5 mm 9 mps 761 mmHg 83%
    07:00 +5°C° 0.5 mm 10 mps 760 mmHg 83%
    08:00 +6°C° 0.6 mm 10 mps 759 mmHg 83%
    09:00 +6°C° 0.6 mm 11 mps 758 mmHg 82%
    10:00 +7°C° 0.6 mm 12 mps 757 mmHg 82%
    11:00 +7°C° 1.4 mm 12 mps 755 mmHg 83%
    12:00 +8°C° 1.4 mm 12 mps 754 mmHg 84%
    13:00 +8°C° 1.4 mm 13 mps 752 mmHg 84%
    14:00 +9°C° 1.9 mm 13 mps 751 mmHg 84%
    15:00 +10°C° 1.9 mm 13 mps 750 mmHg 84%
    16:00 +10°C° 1.9 mm 13 mps 748 mmHg 85%
    17:00 +10°C° 1.1 mm 13 mps 748 mmHg 81%
    18:00 +10°C° 1.1 mm 14 mps 748 mmHg 77%
    19:00 +10°C° 1.1 mm 14 mps 748 mmHg 73%
    20:00 +9°C° 0.2 mm 13 mps 748 mmHg 71%
    21:00 +9°C° 0.2 mm 12 mps 749 mmHg 69%
    22:00 +8°C° 0.2 mm 11 mps 750 mmHg 67%
    23:00 +8°C° 0.1 mm 11 mps 750 mmHg 65%

    24 October, Wednesday

    Time Temperature Precipitation Wind Pressure Humidity
    00:00 +7°C° 0.1 mm 10 mps 750 mmHg 63%
    01:00 +7°C° 0.1 mm 10 mps 751 mmHg 61%
    02:00 +6°C° 0.1 mm 9 mps 752 mmHg 61%
    03:00 +6°C° 0.1 mm 9 mps 752 mmHg 61%
    04:00 +6°C° 0.1 mm 9 mps 753 mmHg 61%
    05:00 +5°C° 0.1 mm 9 mps 753 mmHg 59%
    06:00 +5°C° 0.1 mm 8 mps 754 mmHg 58%
    07:00 +5°C° 0.1 mm 8 mps 754 mmHg 56%
    08:00 +6°C° 0 mm 9 mps 754 mmHg 54%
    09:00 +6°C° 0 mm 9 mps 755 mmHg 52%
    10:00 +7°C° 0 mm 10 mps 755 mmHg 50%
    11:00 +7°C° 0 mm 10 mps 756 mmHg 49%
    12:00 +8°C° 0 mm 10 mps 756 mmHg 49%
    13:00 +8°C° 0 mm 10 mps 756 mmHg 48%
    14:00 +7°C° 0 mm 9 mps 756 mmHg 50%
    15:00 +7°C° 0 mm 8 mps 756 mmHg 52%
    16:00 +7°C° 0 mm 8 mps 757 mmHg 54%
    17:00 +6°C° 0 mm 7 mps 757 mmHg 56%
    18:00 +6°C° 0 mm 7 mps 757 mmHg 57%
    19:00 +6°C° 0 mm 7 mps 757 mmHg 59%
    20:00 +7°C° 0 mm 6 mps 757 mmHg 61%
    21:00 +5°C° 0 mm 6 mps 757 mmHg 63%
    22:00 +6°C° 0 mm 5 mps 757 mmHg 65%
    23:00 +6°C° 0 mm 5 mps 757 mmHg 69%

    25 October, Thursday

    Time Temperature Precipitation Wind Pressure Humidity
    00:00 +6°C° 0 mm 5 mps 757 mmHg 73%
    01:00 +7°C° 0 mm 5 mps 756 mmHg 77%
    02:00 +7°C° 0.4 mm 6 mps 756 mmHg 82%
    03:00 +8°C° 0.4 mm 7 mps 755 mmHg 86%
    04:00 +9°C° 0.4 mm 7 mps 755 mmHg 91%
    05:00 +10°C° 0.4 mm 8 mps 754 mmHg 89%
    06:00 +10°C° 0.4 mm 9 mps 754 mmHg 87%
    07:00 +11°C° 0.4 mm 10 mps 753 mmHg 85%
    08:00 +11°C° 0.2 mm 10 mps 753 mmHg 84%
    09:00 +10°C° 0.2 mm 9 mps 753 mmHg 83%
    10:00 +10°C° 0.2 mm 9 mps 753 mmHg 82%
    11:00 +10°C° 0.1 mm 9 mps 753 mmHg 82%
    12:00 +11°C° 0.1 mm 9 mps 753 mmHg 82%
    13:00 +11°C° 0.1 mm 9 mps 753 mmHg 82%
    14:00 +11°C° 0.2 mm 9 mps 753 mmHg 81%
    15:00 +11°C° 0.2 mm 9 mps 753 mmHg 81%
    16:00 +11°C° 0.2 mm 9 mps 753 mmHg 80%
    17:00 +11°C° 0.2 mm 9 mps 753 mmHg 82%
    18:00 +11°C° 0.2 mm 8 mps 753 mmHg 83%
    19:00 +11°C° 0.2 mm 8 mps 753 mmHg 84%
    20:00 +11°C° 0.2 mm 8 mps 753 mmHg 84%
    21:00 +11°C° 0.2 mm 8 mps 753 mmHg 85%
    22:00 +11°C° 0.2 mm 8 mps 753 mmHg 85%
    23:00 +11°C° 0.2 mm 8 mps 753 mmHg 86%

    26 October, Friday

    Time Temperature Precipitation Wind Pressure Humidity
    00:00 +10°C° 0.2 mm 8 mps 753 mmHg 86%
    01:00 +10°C° 0.2 mm 8 mps 753 mmHg 86%
    02:00 +10°C° 0.2 mm 7 mps 752 mmHg 86%
    03:00 +10°C° 0.2 mm 7 mps 752 mmHg 86%
    04:00 +9°C° 0.2 mm 7 mps 752 mmHg 86%
    05:00 +9°C° 0.1 mm 7 mps 752 mmHg 87%
    06:00 +9°C° 0.1 mm 6 mps 751 mmHg 87%
    07:00 +8°C° 0.1 mm 6 mps 751 mmHg 87%
    08:00 +9°C° 0 mm 6 mps 751 mmHg 85%
    09:00 +9°C° 0 mm 6 mps 751 mmHg 82%
    10:00 +9°C° 0 mm 6 mps 751 mmHg 80%
    11:00 +9°C° 0 mm 6 mps 750 mmHg 78%
    12:00 +10°C° 0 mm 6 mps 750 mmHg 77%
    13:00 +10°C° 0 mm 6 mps 749 mmHg 76%
    14:00 +9°C° 0.1 mm 6 mps 749 mmHg 77%
    15:00 +9°C° 0.1 mm 6 mps 748 mmHg 77%
    16:00 +9°C° 0.1 mm 6 mps 748 mmHg 78%
    17:00 +9°C° 0.1 mm 6 mps 748 mmHg 80%
    18:00 +9°C° 0.1 mm 6 mps 747 mmHg 82%
    19:00 +8°C° 0.1 mm 6 mps 747 mmHg 84%
    20:00 +8°C° 0.1 mm 6 mps 747 mmHg 85%
    21:00 +8°C° 0.1 mm 6 mps 747 mmHg 86%
    22:00 +8°C° 0.1 mm 6 mps 747 mmHg 87%
    23:00 +8°C° 0.2 mm 5 mps 747 mmHg 89%
    Show more